Showing default

OPS 9314 (IDSCS 4), 2218

Orbit data source: Space-Track

OPS 9314 (IDSCS 4), 2218 is a payload satellite owned by USAF SSD (US) in GEO that was launched on Thu, 16 Jun 1966 UTC via a TITAN IIIC launch vehicle from the Air Force Eastern Test Range (AFETR). Payload-class satellites include a variety of spacecraft equipped with specific instruments for various scientific and technological missions. These include communications satellites like Starlink; space stations such as the ISS; scientific satellites like the Hubble; Earth observation satellites from companies like Planet Labs, Umbra, and HawkEye 360; GPS; miniature CubeSats for education and research; and military/defense satellites.

Loading next visibility...
Identifier
2218, 1966-053E
Orbit
GEO
Country
Flag of USUS
Related business
Manufacturer
Philco-Ford WDL
Mission
Non-operational spacecraft
Bus & Motor
IDCSP, Unknown motor
Mass
45 kg wet, 45 kg dry
Launch date (UTC)
1966-06-16 (60 years ago)
Launch vehicle
TITAN IIIC
Launch site
Air Force Eastern Test Range (AFETR)
Object type
Payload
Rocket body
Debris
Shape & HBR
Unknown
Radar Cross Section
Medium (>0.1 m² and <1 m²)

Expand to show TLE details & history
Last TLE update: 1 day ago

TLE from 1 day ago
0 OPS 9314 (IDSCS 4)
1  2218U 66053E   26103.35806435 -.00000107  00000-0  00000+0 0  9997
2  2218   8.4462  45.3761 0043511 199.1632   2.3343  1.07585458234704
Epoch: 2026-04-13T08:35Z
TLE epoch observation values (Epoch: 2026-04-13T08:35:36.759Z)
Latitude
-3.08748°
Longitude
-83.76677°
Altitude
33,678.474 km
Speed
3.161 km/s
True Right ascension
16h 26m 44s
True Declination
-3° 05' 03"
Sunlit
Object was in daylight at epoch
Visualization orbit readout
Latitude
Unknown
Longitude
Unknown
Altitude
Unknown
Speed
Unknown
Apparent Right ascension
Unknown
Apparent Declination
Unknown
Sunlit
N/A
Visualization observer readout
Local Sidereal Time
22:05:32
Azimuth
Unknown
Elevation
Unknown
Doppler factor
Unknown
Orbital elements
Apogee altitude
34,029.494 km
Perigee altitude
33,679.382 km
Semi-major axis
40,232.575 km
Eccentricity
0.00435
Inclination
8.4462°
RAAN
45.3761°
Arg. of periapsis
199.1632°
True anomaly
2.35472°
Mean anomaly
2.3343°
Eccentric anomaly
2.3445°
Mean motion
0.26895 °/min
Orbital period
1,338.52 mins
BSTAR
0
Loading maneuver chart data...
Computing Atmospheric mass density...
Loading historical data...
Loading historical data...
Loading historical data...
Loading historical data...
Loading historical data...
Loading historical data...
Loading historical data...

Documentation

Showing up to 5 results
|